When you browse on this site, cookies collect data to enhance your experience and personalize the content and advertising you see.
Visit our Privacy Policy to learn more. By continuing to use the site, you agree to this use of cookies and data.
  • en France
  • Liste des pays
  • À 7 jours
  • Température de l'eau
  • Carte satellitaire
  • Carte météo
  • Widgets météo
  • user-avatar
    Se connecter

    Météo par heure à Minguetschaour

    Ce jour, 26 Juin, Mercredi

    Heure Température Précipitation Vent Pression Humidité
    00:00 +30°C° 0 mm 2 m/s 752 mmHg 35%
    01:00 +29°C° 0 mm 2 m/s 751 mmHg 37%
    02:00 +28°C° 0 mm 1 m/s 751 mmHg 39%
    03:00 +28°C° 0 mm 1 m/s 751 mmHg 40%
    04:00 +29°C° 0 mm 1 m/s 752 mmHg 40%
    05:00 +29°C° 0 mm 1 m/s 752 mmHg 40%
    06:00 +30°C° 0 mm 1 m/s 752 mmHg 40%
    07:00 +32°C° 0 mm 1 m/s 752 mmHg 36%
    08:00 +33°C° 0 mm 1 m/s 752 mmHg 32%
    09:00 +35°C° 0 mm 1 m/s 752 mmHg 28%
    10:00 +38°C° 0 mm 3 m/s 752 mmHg 25%
    11:00 +40°C° 0 mm 4 m/s 752 mmHg 21%
    12:00 +42°C° 0 mm 5 m/s 752 mmHg 18%
    13:00 +42°C° 0 mm 5 m/s 751 mmHg 18%
    14:00 +42°C° 0 mm 5 m/s 751 mmHg 18%
    15:00 +42°C° 0 mm 5 m/s 750 mmHg 19%
    16:00 +42°C° 0 mm 5 m/s 750 mmHg 20%
    17:00 +41°C° 0 mm 5 m/s 751 mmHg 21%
    18:00 +41°C° 0 mm 5 m/s 751 mmHg 22%
    19:00 +39°C° 0 mm 6 m/s 751 mmHg 26%
    20:00 +36°C° 0 mm 6 m/s 751 mmHg 30%
    21:00 +33°C° 0 mm 7 m/s 751 mmHg 34%
    22:00 +33°C° 0 mm 6 m/s 751 mmHg 36%
    23:00 +32°C° 0 mm 5 m/s 751 mmHg 37%

    Demain, 27 Juin, Jeudi

    Heure Température Précipitation Vent Pression Humidité
    00:00 +32°C° 0 mm 5 m/s 751 mmHg 39%
    01:00 +30°C° 0 mm 4 m/s 751 mmHg 40%
    02:00 +30°C° 0 mm 4 m/s 751 mmHg 41%
    03:00 +29°C° 0 mm 3 m/s 751 mmHg 42%
    04:00 +29°C° 0 mm 3 m/s 751 mmHg 42%
    05:00 +30°C° 0 mm 3 m/s 751 mmHg 43%
    06:00 +30°C° 0 mm 4 m/s 751 mmHg 43%
    07:00 +32°C° 0 mm 4 m/s 751 mmHg 40%
    08:00 +33°C° 0 mm 5 m/s 751 mmHg 37%
    09:00 +35°C° 0 mm 6 m/s 750 mmHg 35%
    10:00 +36°C° 0 mm 6 m/s 750 mmHg 33%
    11:00 +38°C° 0 mm 6 m/s 750 mmHg 31%
    12:00 +38°C° 0 mm 6 m/s 749 mmHg 30%
    13:00 +39°C° 0 mm 6 m/s 749 mmHg 29%
    14:00 +39°C° 0 mm 6 m/s 748 mmHg 28%
    15:00 +40°C° 0 mm 5 m/s 748 mmHg 27%
    16:00 +39°C° 0 mm 5 m/s 748 mmHg 28%
    17:00 +37°C° 0 mm 5 m/s 747 mmHg 29%
    18:00 +37°C° 0 mm 5 m/s 747 mmHg 31%
    19:00 +35°C° 0 mm 5 m/s 747 mmHg 34%
    20:00 +34°C° 0 mm 5 m/s 748 mmHg 38%
    21:00 +32°C° 0 mm 5 m/s 748 mmHg 42%
    22:00 +30°C° 0.1 mm 5 m/s 748 mmHg 46%
    23:00 +29°C° 0.1 mm 5 m/s 748 mmHg 50%

    Après-demain, 28 Juin, Vendredi

    Heure Température Précipitation Vent Pression Humidité
    00:00 +29°C° 0.1 mm 5 m/s 747 mmHg 54%
    01:00 +28°C° 0 mm 4 m/s 747 mmHg 55%
    02:00 +27°C° 0 mm 3 m/s 747 mmHg 57%
    03:00 +26°C° 0 mm 3 m/s 747 mmHg 59%
    04:00 +27°C° 0 mm 2 m/s 747 mmHg 58%
    05:00 +27°C° 0 mm 2 m/s 746 mmHg 56%
    06:00 +28°C° 0 mm 2 m/s 746 mmHg 55%
    07:00 +29°C° 0 mm 3 m/s 746 mmHg 48%
    08:00 +31°C° 0 mm 3 m/s 746 mmHg 41%
    09:00 +34°C° 0 mm 3 m/s 745 mmHg 34%
    10:00 +35°C° 0.1 mm 3 m/s 745 mmHg 33%
    11:00 +35°C° 0.1 mm 3 m/s 744 mmHg 32%
    12:00 +36°C° 0.1 mm 4 m/s 744 mmHg 31%
    13:00 +36°C° 0.2 mm 3 m/s 743 mmHg 30%
    14:00 +37°C° 0.2 mm 3 m/s 743 mmHg 30%
    15:00 +37°C° 0.2 mm 3 m/s 742 mmHg 30%
    16:00 +36°C° 0.1 mm 3 m/s 742 mmHg 32%
    17:00 +36°C° 0.1 mm 3 m/s 742 mmHg 34%
    18:00 +35°C° 0.1 mm 3 m/s 742 mmHg 36%
    19:00 +34°C° 0 mm 3 m/s 742 mmHg 40%
    20:00 +32°C° 0 mm 2 m/s 743 mmHg 43%
    21:00 +31°C° 0 mm 2 m/s 743 mmHg 46%
    22:00 +30°C° 0 mm 2 m/s 743 mmHg 47%
    23:00 +30°C° 0 mm 1 m/s 743 mmHg 49%

    29 Juin, Samedi

    Heure Température Précipitation Vent Pression Humidité
    00:00 +30°C° 0 mm 1 m/s 743 mmHg 50%
    01:00 +29°C° 0 mm 2 m/s 743 mmHg 52%
    02:00 +29°C° 0 mm 3 m/s 743 mmHg 54%
    03:00 +28°C° 0 mm 3 m/s 742 mmHg 56%
    04:00 +28°C° 0.1 mm 4 m/s 742 mmHg 56%
    05:00 +28°C° 0.1 mm 5 m/s 742 mmHg 56%
    06:00 +28°C° 0.1 mm 5 m/s 742 mmHg 57%
    07:00 +30°C° 0.2 mm 5 m/s 742 mmHg 52%
    08:00 +32°C° 0.2 mm 5 m/s 742 mmHg 47%
    09:00 +34°C° 0.2 mm 5 m/s 742 mmHg 43%
    10:00 +35°C° 0 mm 4 m/s 742 mmHg 40%
    11:00 +36°C° 0 mm 3 m/s 742 mmHg 37%
    12:00 +37°C° 0 mm 3 m/s 741 mmHg 34%
    13:00 +37°C° 0.1 mm 3 m/s 741 mmHg 34%
    14:00 +37°C° 0.1 mm 3 m/s 740 mmHg 34%
    15:00 +38°C° 0.1 mm 3 m/s 740 mmHg 33%
    16:00 +37°C° 0.1 mm 3 m/s 740 mmHg 35%
    17:00 +37°C° 0.1 mm 4 m/s 740 mmHg 36%
    18:00 +36°C° 0.1 mm 4 m/s 740 mmHg 37%
    19:00 +34°C° 1.3 mm 5 m/s 741 mmHg 44%
    20:00 +30°C° 1.3 mm 6 m/s 742 mmHg 52%
    21:00 +28°C° 1.3 mm 7 m/s 742 mmHg 59%
    22:00 +27°C° 0.5 mm 7 m/s 743 mmHg 63%
    23:00 +26°C° 0.5 mm 8 m/s 743 mmHg 66%

    30 Juin, Dimanche

    Heure Température Précipitation Vent Pression Humidité
    00:00 +24°C° 0.5 mm 8 m/s 743 mmHg 70%
    01:00 +24°C° 0.3 mm 8 m/s 744 mmHg 67%
    02:00 +24°C° 0.3 mm 8 m/s 744 mmHg 65%
    03:00 +23°C° 0.3 mm 9 m/s 744 mmHg 63%
    04:00 +23°C° 0.1 mm 8 m/s 744 mmHg 61%
    05:00 +23°C° 0.1 mm 8 m/s 744 mmHg 59%
    06:00 +23°C° 0.1 mm 8 m/s 745 mmHg 57%
    07:00 +24°C° 0 mm 7 m/s 745 mmHg 54%
    08:00 +26°C° 0 mm 6 m/s 745 mmHg 50%
    09:00 +27°C° 0 mm 6 m/s 745 mmHg 47%
    10:00 +29°C° 0 mm 5 m/s 745 mmHg 42%
    11:00 +30°C° 0 mm 4 m/s 745 mmHg 38%
    12:00 +33°C° 0 mm 3 m/s 745 mmHg 33%
    13:00 +32°C° 0 mm 2 m/s 745 mmHg 33%
    14:00 +34°C° 0 mm 2 m/s 744 mmHg 32%
    15:00 +33°C° 0 mm 1 m/s 744 mmHg 32%
    16:00 +33°C° 0.2 mm 3 m/s 744 mmHg 38%
    17:00 +30°C° 0.2 mm 5 m/s 744 mmHg 45%
    18:00 +29°C° 0.2 mm 7 m/s 744 mmHg 52%
    19:00 +27°C° 0.6 mm 6 m/s 745 mmHg 59%
    20:00 +26°C° 0.6 mm 5 m/s 745 mmHg 65%
    21:00 +23°C° 0.6 mm 4 m/s 746 mmHg 72%
    22:00 +22°C° 0.4 mm 5 m/s 746 mmHg 70%
    23:00 +22°C° 0.4 mm 5 m/s 746 mmHg 68%

    1 Juillet, Lundi

    Heure Température Précipitation Vent Pression Humidité
    00:00 +21°C° 0.4 mm 5 m/s 746 mmHg 66%
    01:00 +21°C° 0.2 mm 6 m/s 746 mmHg 67%
    02:00 +21°C° 0.2 mm 6 m/s 746 mmHg 67%
    03:00 +21°C° 0.2 mm 7 m/s 747 mmHg 67%
    04:00 +20°C° 0.4 mm 6 m/s 747 mmHg 67%
    05:00 +20°C° 0.4 mm 6 m/s 747 mmHg 67%
    06:00 +20°C° 0.4 mm 5 m/s 747 mmHg 67%
    07:00 +20°C° 0.1 mm 5 m/s 747 mmHg 66%
    08:00 +21°C° 0.1 mm 4 m/s 747 mmHg 65%
    09:00 +21°C° 0.1 mm 3 m/s 748 mmHg 64%
    10:00 +21°C° 0 mm 3 m/s 748 mmHg 62%
    11:00 +21°C° 0 mm 3 m/s 748 mmHg 60%
    12:00 +22°C° 0 mm 3 m/s 748 mmHg 58%
    13:00 +22°C° 0 mm 3 m/s 748 mmHg 55%
    14:00 +24°C° 0 mm 3 m/s 747 mmHg 53%
    15:00 +25°C° 0 mm 2 m/s 747 mmHg 50%
    16:00 +24°C° 0.1 mm 3 m/s 747 mmHg 52%
    17:00 +24°C° 0.1 mm 3 m/s 748 mmHg 54%
    18:00 +22°C° 0.1 mm 3 m/s 748 mmHg 56%
    19:00 +21°C° 0.1 mm 3 m/s 749 mmHg 60%
    20:00 +21°C° 0.1 mm 3 m/s 749 mmHg 64%
    21:00 +20°C° 0.1 mm 3 m/s 750 mmHg 68%
    22:00 +20°C° 0 mm 3 m/s 750 mmHg 66%
    23:00 +20°C° 0 mm 4 m/s 750 mmHg 65%
    Voir plus